Flag for Germany Weather past 2 weeks in Apolda, Thuringia, Germany

Now
65 °F

Fog.


Feels Like: 65 °F
Forecast: 59 / 85 °F
Wind: 3 mph from Northeast

Location: Erfurt-Bindersleben

Current Time: Jul 26, 2014 at 11:46:11 AM

Latest Report: Jul 26, 2014 at 11:00 AM


Visibility: 3 mi

Pressure: 29.93 "Hg

Humidity: 87%

Dew point: 61 °F

Location of ApoldaLocation

Historic Weather in Apolda — Graph

°F

Apolda temperature yesterday

Maximum temperature yesterday: 70 °F (at 6:00 PM)
Minimum temperature yesterday: 59 °F (at 2:00 AM)
Average temperature yesterday: 63 °F

Past Weeks' High & Low Weather Summary

 TemperatureHumidityPressure
High88 °F (Jul 19, 5:00 PM)98% (Jul 25, 2:00 AM)30.20 "Hg (Jul 25, 2:00 AM)
Low52 °F (Jul 13, 5:00 AM)27% (Jul 19, 7:00 PM)29.75 "Hg (Jul 20, 7:00 PM)
Average68 °F69%29.96 "Hg
* Reported Jul 11 10:00 AM — Jul 26 10:00 AM, Apolda, Weather by CustomWeather, © 2014

Note: Actual official high and low records may vary slightly from our data, if they occured in-between our weather recording intervals... More about our weather records

Advertising

Apolda weather history for previous 24 hours

 ConditionsComfort  
Time TempWeatherWind HumidityBarometerVisibility
10:00 AM
Jul 26
62 °FFog.1 mph98%29.93 "Hg2 mi
9:00 AM61 °FFog.1 mph98%29.94 "Hg0 mi
8:00 AM60 °FFog.1 mph98%29.93 "Hg0 mi
7:00 AM59 °FFog.2 mph98%29.93 "Hg0 mi
6:00 AM59 °FFog.2 mph98%29.93 "Hg0 mi
5:00 AM59 °FFog.1 mph93%29.92 "Hg9 mi
4:00 AM58 °FPassing clouds.2 mph94%29.92 "Hg22 mi
3:00 AM59 °FClear.1 mph92%29.93 "Hg31 mi
2:00 AM60 °FClear.2 mph90%29.93 "Hg31 mi
1:00 AM61 °FPassing clouds.1 mph88%29.93 "Hg37 mi
12:00 AM64 °FPassing clouds.1 mph86%29.92 "Hg37 mi
11:00 PM
Jul 25
63 °FPassing clouds.2 mph86%29.92 "Hg37 mi
10:00 PM65 °FPassing clouds.2 mph80%29.91 "Hg37 mi
9:00 PM67 °FPartly sunny.1 mph79%29.90 "Hg47 mi
8:00 PM69 °FScattered clouds.2 mph71%29.90 "Hg47 mi
7:00 PM69 °FPartly sunny.3 mph69%29.89 "Hg47 mi
6:00 PM70 °FPartly sunny.3 mph68%29.89 "Hg47 mi
5:00 PM70 °FPartly sunny.3 mph69%29.90 "Hg43 mi
4:00 PM69 °FPartly sunny.3 mph73%29.91 "Hg31 mi
3:00 PM68 °FPartly sunny.3 mph75%29.92 "Hg25 mi
2:00 PM65 °FOvercast.2 mph80%29.94 "Hg16 mi
1:00 PM64 °FLow clouds.1 mph88%29.95 "Hg16 mi
12:00 PM62 °FLow clouds.1 mph93%29.96 "Hg11 mi
11:00 AM61 °FLow clouds.2 mph95%29.96 "Hg6 mi
Weather by CustomWeather, © 2014

See weather overviewHow to use our weather pages